Lexington, KY

9:55 PM EDT on July 22, 2017 (GMT -0400)
Blue Grass

Weather History for KLEX - November, 2010

Change the Weather History Date:

Saturday, November 13, 2010

  Actual Average Record
Temperature  
Mean Temperature 59 °F 48 °F  
Max Temperature 71 °F 57 °F 78 °F (1955)
Min Temperature 46 °F 38 °F 13 °F (1911)
Degree Days  
Heating Degree Days 6 18  
Month to date heating degree days 209 200  
Since 1 July heating degree days 444 526  
Cooling Degree Days 0 0  
Month to date cooling degree days 0 0  
Year to date cooling degree days 1583 1188  
Growing Degree Days 8 (Base 50)    
Moisture  
Dew Point 37 °F    
Average Humidity 51    
Maximum Humidity 71    
Minimum Humidity 31    
Precipitation  
Precipitation 0.01 in 0.11 in 1.59 in (1889)
Month to date precipitation 0.13 1.42  
Year to date precipitation 31.22 39.13  
Snow  
Snow 0.00 in 0.00 in 0.70 in (1995)
Month to date snowfall 0.0 0.0  
Since 1 July snowfall 0.0 0.0  
Since 1 September snowfall 0.0 0.0  
Snow Depth 0.00 in    
Sea Level Pressure  
Sea Level Pressure 30.10 in    
Wind  
Wind Speed 9 mph (South)    
Max Wind Speed 21 mph    
Max Gust Speed 26 mph    
Visibility 10 miles    
Events Rain    
T = Trace of Precipitation, MM = Missing Value Source: NWS Daily Summary

Daily Weather History Graph

Daily Weather History Graph

Search for Another Location

Airport or City:

Trip Planner

Search our weather history database for the weather conditions in past years. The results will help you decide how hot, cold, wet, or windy it might be!

Date:

Astronomy

Nov. 13, 2010 Rise Set
Actual Time 7:17 AM EST 5:27 PM EST
Civil Twilight 6:49 AM EST 5:55 PM EST
Nautical Twilight 6:17 AM EST 6:27 PM EST
Astronomical Twilight 5:46 AM EST 6:58 PM EST
Moon 1:14 PM EST (11/13) No Moon Set
Length of Visible Light 11h 06m
Length of Day
10h 10m
Waxing Crescent, 50% of the Moon is Illuminated
Nov 13
Waxing Crescent
Nov 21
Full
Nov 28
Last Quarter
Dec 5
New
Dec 13
First Quarter

Hourly Weather History & Observations

Time (EST) Temp. Dew Point Humidity Pressure Visibility Wind Dir Wind Speed Gust Speed Precip Events Conditions
12:54 AM 50.0 °F 30.2 °F 47% 30.22 in 10.0 mi SSE 4.6 mph - N/A   Clear
1:54 AM 48.9 °F 28.9 °F 46% 30.19 in 10.0 mi SE 5.8 mph - N/A   Clear
2:54 AM 48.9 °F 30.0 °F 48% 30.19 in 10.0 mi SSE 8.1 mph - N/A   Clear
3:54 AM 46.9 °F 33.1 °F 59% 30.19 in 10.0 mi SSE 8.1 mph - N/A   Clear
4:54 AM 46.9 °F 36.0 °F 66% 30.18 in 10.0 mi SSE 8.1 mph - N/A   Clear
5:54 AM 46.9 °F 36.0 °F 66% 30.18 in 10.0 mi South 6.9 mph - N/A   Clear
6:54 AM 46.9 °F 37.0 °F 68% 30.18 in 10.0 mi SSE 9.2 mph - N/A   Clear
7:54 AM 48.0 °F 37.0 °F 66% 30.19 in 10.0 mi SSE 6.9 mph - N/A   Clear
8:54 AM 54.0 °F 39.9 °F 59% 30.19 in 10.0 mi South 8.1 mph - N/A   Clear
9:54 AM 60.1 °F 41.0 °F 49% 30.18 in 10.0 mi South 9.2 mph - N/A   Clear
10:54 AM 64.0 °F 41.0 °F 43% 30.16 in 10.0 mi South 12.7 mph - N/A   Clear
11:54 AM 68.0 °F 42.1 °F 39% 30.13 in 10.0 mi SSW 11.5 mph - N/A   Clear
12:54 PM 71.1 °F 41.0 °F 34% 30.09 in 10.0 mi SW 11.5 mph 20.7 mph N/A   Clear
1:54 PM 70.0 °F 39.9 °F 33% 30.06 in 10.0 mi SSW 15.0 mph - N/A   Clear
2:54 PM 69.1 °F 39.0 °F 33% 30.04 in 10.0 mi SW 10.4 mph - N/A   Clear
3:54 PM 70.0 °F 37.0 °F 30% 30.02 in 10.0 mi SW 12.7 mph - N/A   Clear
4:54 PM 66.0 °F 37.9 °F 36% 30.00 in 10.0 mi South 9.2 mph - N/A   Clear
5:54 PM 63.0 °F 37.0 °F 38% 30.01 in 10.0 mi South 9.2 mph - N/A   Scattered Clouds
6:54 PM 61.0 °F 37.0 °F 41% 30.01 in 10.0 mi South 10.4 mph - N/A   Clear
7:54 PM 60.1 °F 37.0 °F 42% 30.00 in 10.0 mi South 9.2 mph - N/A   Scattered Clouds
8:54 PM 60.1 °F 37.9 °F 44% 29.99 in 10.0 mi South 8.1 mph - 0.00 in Rain Light Rain
9:54 PM 57.0 °F 42.1 °F 57% 29.99 in 10.0 mi South 5.8 mph - 0.01 in Rain Light Rain
10:54 PM 57.0 °F 41.0 °F 55% 29.98 in 10.0 mi South 5.8 mph - 0.00 in Rain Light Rain
11:54 PM 57.9 °F 39.0 °F 49% 29.96 in 10.0 mi South 8.1 mph - 0.00 in   Overcast